www.pogodaiklimat.ru

Погода и климат >> Архив погоды >> Ирак >> Najaf


ПОГОДА в Najaf

  • Прогноз погоды в Najaf
  • Монитор погоды в Najaf
  • Климат города

АРХИВ ПОГОДЫ в Najaf

Время (UTC), дата Ветер
(напр.,м/с)
 
Видим.   Явления Облачность Т
(С)
Тd
(С)
f
(%)
Тe
(С)
Тes
(С)
Комфортность P
(гПа)
Po
(гПа)
Тmin
(С)
Tmax
(С)
R
(мм)
R24
(мм)
S
(см)
09 11.08 штиль 0 10 км ясно +45.8 +7.8 11 +44 +71 опасность
перегрева
1002.5 1003.0
12 11.08 штиль 0 10 км ясно +45.8 +7.8 11 +44 +59 опасность
перегрева
1002.5 1003.0
15 11.08 штиль 0 10 км 4/4 840 м
[Cu med, cong]
+45.8 +14.4 16 +46 +47 опасность
перегрева
999.3 999.0
21 11.08 штиль 0 10 км ясно +37.8 +17.0 30 +41 +41 опасность
перегрева
1001.2 1001.0
00 12.08 С 6 10 км ясно +36.2 +9.7 20 +35 +35 очень
жарко
1000.7 1001.0
03 12.08 СЗ 3 10 км ясно +33.8 +13.2 29 +35 +35 очень
жарко
1000.8 1001.0
06 12.08 СЗ 2 10 км ясно +38.6 +13.4 22 +39 +50 душно 1001.8 1002.0 +33.4
09 12.08 С 4 10 км 4/4 840 м
[Cu med, cong]
+44.5 +12.5 15 +44 +52 опасность
перегрева
1001.3 1001.0
12 12.08 С 4 10 км 3/3 840 м
[Cu hum]
+48.2 +10.7 11 +47 +52 опасность
перегрева
1000.0 1000.0
18 12.08 штиль 0 10 км ясно +40.5 +10.4 17 +39 +39 очень
жарко
1001.0 1001.0 +49.0
00 13.08 штиль 0 10 км ясно +34.6 +9.1 21 +33 +33 жарко 1000.4 1000.0
03 13.08 штиль 0 10 км ясно +32.6 +10.0 25 +32 +32 жарко 1000.8 1001.0
06 13.08 З 2 8000 м пыль ясно +39.5 +11.4 19 +39 +50 очень
жарко
1002.2 1002.0 +32.0
09 13.08 СЗ 2 8000 м пыль ясно +48.5 +9.2 10 +47 +67 опасность
перегрева
1002.1 1002.0
12 13.08 З 3 10 км ясно +50.4 +8.5 9 +48 +58 опасность
перегрева
1000.1 1000.0
15 13.08 СВ 2 10 км ясно +47.2 +9.1 11 +46 +46 опасность
перегрева
999.7 1000.0
18 13.08 штиль 0 10 км ясно +39.5 +12.7 20 +39 +39 очень
жарко
1001.9 1002.0 +51.0
21 13.08 штиль 0 10 км ясно +36.4 +12.7 24 +36 +36 очень
жарко
1002.4 1002.0
00 14.08 СВ 3 10 км ясно +35.5 +12.3 25 +35 +35 очень
жарко
1002.4 1002.0
03 14.08 СВ 2 10 км 5/0
[Ac trans]
+34.2 +12.1 26 +34 +34 очень
жарко
1003.8 1004.0
06 14.08 СВ 2 10 км 4/0
[Ac trans]
+38.8 +13.3 22 +39 +47 очень
жарко
1004.5 1005.0 +33.8
12 14.08 СВ 2 10 км 4/0
[Ci sp]
+45.5 +15.1 17 +46 +57 опасность
перегрева
1003.3 1003.0
15 14.08 штиль 0 10 км ясно +44.2 +15.8 19 +45 +46 опасность
перегрева
1002.5 1003.0
18 14.08 штиль 0 10 км ясно +41.0 +14.8 22 +42 +42 опасность
перегрева
1003.9 1004.0 +46.0
21 14.08 штиль 0 10 км ясно +37.0 +15.6 28 +39 +39 очень
душно
1004.1 1004.0
00 15.08 штиль 0 10 км ясно +34.0 +16.2 35 +37 +37 очень
душно
1002.7 1003.0
03 15.08 штиль 0 10 км ясно +32.5 +10.8 26 +32 +32 жарко 1003.9 1004.0
06 15.08 штиль 0 10 км ясно +38.6 +11.1 19 +38 +52 опасность
солнечного
удара
1004.8 1005.0 +32.0
09 15.08 штиль 0 10 км ясно +44.6 +11.0 14 +43 +70 опасность
перегрева
1004.3 1004.0
12 15.08 СВ 2 10 км ясно +45.3 +10.3 13 +44 +55 опасность
перегрева
1002.9 1003.0
15 15.08 штиль 0 10 км ясно +44.2 +11.3 15 +43 +44 опасность
перегрева
1002.4 1002.0
18 15.08 штиль 0 10 км ясно +38.6 +17.1 28 +41 +41 опасность
перегрева
1003.5 1004.0 +45.8
21 15.08 штиль 0 10 км ясно +35.8 +15.1 29 +37 +37 душно 1003.1 1003.0
00 16.08 штиль 0 10 км ясно +33.8 +16.5 36 +37 +37 очень
душно
1002.2 1002.0
03 16.08 штиль 0 10 км 5/0
[Ac cast]
+34.6 +18.7 39 +39 +39 очень
душно
1003.3 1003.0
06 16.08 штиль 0 10 км 3/3 840 м
[Cu med, cong]
+38.8 +13.3 22 +39 +49 очень
жарко
1004.4 1004.0 +31.2
09 16.08 штиль 0 10 км ясно +45.0 +16.0 19 +47 +73 опасность
перегрева
1004.2 1004.0
12 16.08 штиль 0 10 км 8/8 900 м
[Cu hum]
+45.5 +15.1 17 +46 +49 опасность
перегрева
1002.1 1002.0
18 16.08 штиль 0 10 км 3/3 900 м
[Cu hum]
+40.8 +14.2 21 +41 +41 опасность
перегрева
1001.2 1001.0 +47.9
21 16.08 ЮВ 3 10 км 3/3 900 м
[Cu hum]
+38.5 +13.5 23 +39 +39 душно 1002.0 1002.0
00 17.08 штиль 0 10 км ясно +38.0 +12.2 21 +37 +37 очень
жарко
1001.0 1001.0
09 17.08 Ю 4 10 км 5/0
[Ac trans]
+46.8 +11.9 13 +46 +55 опасность
перегрева
1002.1 1002.0
12 17.08 СЗ 3 10 км 8/8 840 м
[Cu hum]
+49.0 +11.5 12 +48 +50 опасность
перегрева
1001.5 1002.0
15 17.08 штиль 0 8000 м пыль 3/0
[Ci sp]
+45.6 +14.3 16 +46 +46 опасность
перегрева
1001.5 1002.0
18 17.08 штиль 0 8000 м пыль 3/3 840 м
[Cu hum]
+40.0 +19.2 30 +44 +44 опасность
перегрева
1002.9 1003.0 +49.4
21 17.08 штиль 0 10 км ясно +39.2 +13.5 22 +39 +39 очень
жарко
1003.3 1003.0
06 18.08 штиль 0 10 км ясно +39.5 +11.1 18 +38 +53 опасность
солнечного
удара
1005.7 1006.0 +34.7

 

Местоположение метеостанции Najaf (Ирак): широта 31.98 долгота 44.32 высота над уровнем моря 32 м.

В архиве по умолчанию представлена погода в Najaf за последнюю неделю. Архивные данные за месяц целиком и за предыдущие месяцы, начиная с января 2011 года, Вы можете получить, выбрав интересующий диапазон дат из раскрывающегося списка и нажав кнопку "Ввод!".

Внимание! Время в таблицах - всемирное. Для получения местного времени необходимо прибавить поправку, которая в Najaf равна 3 ч.

Смотрите также архив погоды в соседних городах и на ближайших метеорологических станциях:

Погода в Hella (Ирак) (54 км)
Погода в Diwaniya (Ирак) (62 км)
Погода в Karbalaa (Ирак) (77 км)
Погода в Samawah (Ирак) (118 км)
Погода в Azizyah (Ирак) (126 км)
Погода в Baghdad (Ирак) (139 км)
Погода в Ubaydah Bin Al Jarrah (Ирак) (146 км)
Погода в Kut-Al-Hai (Ирак) (164 км)
Погода в Rifai (Ирак) (171 км)
Погода в Ayn Al-Tamar (Ирак) (179 км)

Пояснения к столбцам:

Ветер - указаны скорость ветра в м/с - средняя за 10 мин, порывы в срок и между сроками (в фигурных скобках) и направление, откуда дует ветер: С - северный, СВ - северо-восточный, В - восточный, ЮВ - юго-восточный, Ю - южный, ЮЗ - юго-западный, З - западный, СЗ - северо-западный.
Видимость - горизонтальная дальность видимости в метрах или километрах. При видимости от 1 до 10 км при отсутствии осадков обычно наблюдается дымка, при ухудшении видимости до 1 км и менее - туман. В сухую погоду видимость может ухудшаться дымом, пылью или мглою.
Явления - указаны атмосферные явления, наблюдавшиеся в срок или в последний час перед сроком; фигурными скобками обозначены явления, наблюдавшиеся между сроками (за 1-3 часа до срока); квадратными скобками обозначены град или гололедные отложения с указанием их диаметра в мм.
Облачность - указаны через наклонную черту общая и нижняя облачность в баллах и высота нижней границы облаков в метрах; квадратными скобками обозначены формы облаков: Ci - перистые, Cs - перисто-слоистые, Cc - перисто-кучевые, Ac - высококучевые, As - высокослоистые, Sc - слоисто-кучевые, Ns - слоисто-дождевые, Cu - кучевые, Cb - кучево-дождевые. Подробнее классификацию облаков см. в Атласе облаков (PDF).
T - Температура воздуха - температура, измеренная на высоте 2 м над землей.
Td - Температура точки росы - температура, при понижении до которой содержащийся в воздухе водяной пар достигнет насыщения.
f - Относительная влажность воздуха - влажноcть воздуха, измеренная на высоте 2 м над землей.
Te - Эффективная температура - температура, которую ощущает одетый по сезону человек в тени. Характеристика душности погоды. При расчете учитывается влияние влажности воздуха и скорости ветра на теплоощущения человека.
Tes - Эффективная температура на солнце - температура, которую ощущает человек, с поправкой на солнечный нагрев. Характеристика знойности погоды. Зависит от высоты солнца над горизонтом, облачности и скорости ветра. Ночью, в пасмурную погоду, а также при ветре 12 м/с и более поправка равна нулю.
P - Атмосферное давление - приведенное к уровню моря атмосферное давление.
Po - Атмосферное давление - измеренное на уровне метеостанции атмосферное давление.
Tmin - Минимальная температура - минимум температуры воздуха на высоте 2 м над землей.
Tmax - Максимальная температура - максимум температуры воздуха на высоте 2 м над землей.
R - Количество осадков - Количество выпавших осадков за период времени, мм. При наведении курсора мыши на число - период времени, за который выпало указанное количество осадков.
R24 - Количество осадков - Количество выпавших осадков за 24 часа, мм.
S - Снежный покров - Высота снежного покрова, см. При наведении курсора мыши на число - состояние снежного покрова и степень покрытия местности в баллах.